This demonstration page uses our WeatherBlox Daily Observations layout. Learn more.

Left ArrowRight Arrow

39.51506, -84.39828

Hourly Observations for September 3, 2015

Temp ( °F °C ) Dew Point ( °F °C ) Humidity (%) Winds ( mph kmh ) Pressure ( in mb ) Visibility ( mi km ) Precip ( " mm )
12:15 am 00:15 Clear with Mist and Fog 70 20.9 66 19 89 89 Calm 30.03 1017 5 8.0467 0 0
12:35 am 00:35 Clear with Mist and Fog 69 20.8 66 19 90 90 Calm 30.03 1017 4 6.43736 0 0
12:55 am 00:55 Clear with Mist and Fog 69 20.8 66 19 90 90 Calm 30.03 1017 4 6.43736 0 0
1:15 am 01:15 Clear with Mist and Fog 69 20.8 66 19 90 90 Calm 30.03 1017 5 8.0467 0 0
1:35 am 01:35 Clear with Mist and Fog 69 20.8 66 19 90 90 Calm 30 1016 4 6.43736 0 0
1:55 am 01:55 Clear with Mist and Fog 69 20.8 66 19 90 90 Calm 30 1016 5 8.0467 0 0
2:15 am 02:15 Clear with Mist and Fog 69 20.8 66 19 90 90 Calm 30 1016 5 8.0467 0 0
2:35 am 02:35 Clear with Mist and Fog 69 20.8 66 19 90 90 ENE 5 7 30 1016 4 6.43736 0 0
2:55 am 02:55 Clear with Mist and Fog 69 20.8 66 19 90 90 Calm 30 1016 5 8.0467 0 0
3:15 am 03:15 Clear with Mist and Fog 69 20.8 66 19 90 90 Calm 30 1016 3 4.82802 0 0
3:35 am 03:35 Clear with Mist and Fog 69 20.8 66 19.1 90 90 Calm 30 1016 2.5 4.02335 0 0
3:55 am 03:55 Clear with Mist and Fog 69 20.8 66 19.1 90 90 Calm 30 1016 2 3.21868 0 0
4:15 am 04:15 Clear with Mist and Fog 69 20.8 66 19.1 90 90 Calm 30 1016 2 3.21868 0 0
4:35 am 04:35 Mostly Cloudy with Mist and Fog 69 20.8 67 19.3 91 91 Calm 30 1016 1.75 2.816345 0 0
4:55 am 04:55 Clear with Mist and Fog 69 20.8 67 19.3 91 91 Calm 30 1016 3 4.82802 0 0
5:15 am 05:15 Clear with Mist and Fog 69 20.8 67 19.2 91 91 Calm 30 1016 3 4.82802 0 0
5:35 am 05:35 Clear with Mist and Fog 69 20.8 67 19.3 91 91 Calm 30 1016 3 4.82802 0 0
5:55 am 05:55 Clear with Mist and Fog 69 20.8 67 19.2 91 91 Calm 30 1016 2.5 4.02335 0 0
6:15 am 06:15 Clear with Mist and Fog 69 20.8 67 19.3 91 91 Calm 30 1016 2 3.21868 0 0
6:35 am 06:35 Mostly Cloudy with Mist and Fog 68 20 65 18.5 91 91 Calm 30 1016 1.75 2.816345 0 0
6:55 am 06:55 Clear with Mist and Fog 69 20.3 66 18.8 91 91 Calm 30 1016 3 4.82802 0 0
7:15 am 07:15 Mostly Cloudy with Mist and Fog 69 20.8 67 19.3 91 91 Calm 30.03 1017 1 1.60934 0 0
7:35 am 07:35 Mostly Cloudy with Mist and Fog 69 20.8 67 19.3 91 91 Calm 30.03 1017 1.75 2.816345 0 0
7:55 am 07:55 Mostly Cloudy with Mist and Fog 69 20.6 66 19.1 91 91 Calm 30.03 1017 1.25 2.011675 0 0
8:15 am 08:15 Sunny with Mist and Fog 69 20.8 67 19.3 91 91 Calm 30.03 1017 2 3.21868 0 0
8:35 am 08:35 Sunny with Mist and Fog 69 20.8 67 19.3 91 91 Calm 30.03 1017 2.5 4.02335 0 0
8:55 am 08:55 Sunny with Mist and Fog 73 22.9 71 21.4 91 91 Calm 30.03 1017 3 4.82802 0 0
9:15 am 09:15 Sunny with Mist and Fog 74 23.6 71 21.6 89 89 Calm 30.03 1017 4 6.43736 0 0
9:35 am 09:35 Hazy 76 24.2 70 21.3 84 84 Calm 30.03 1017 5 8.0467 0 0
9:55 am 09:55 Sunny 77 25.1 71 21.8 82 82 Calm 30.03 1017 7 11.26538 0 0
10:15 am 10:15 Sunny 80 26.5 71 21.5 74 74 Calm 30.03 1017 10 16.0934 0 0
10:35 am 10:35 Sunny 81 27.3 71 21.8 72 72 Calm 30 1016 10 16.0934 0 0
10:55 am 10:55 Sunny 83 28.5 71 21.6 66 66 W 5 7 29.97 1015 10 16.0934 0 0
11:15 am 11:15 Sunny 85 29.6 72 22.2 64 64 NW 3 6 29.97 1015 10 16.0934 0 0
11:35 am 11:35 Sunny 87 30.7 72 22 60 60 W 3 6 29.97 1015 10 16.0934 0 0
11:55 am 11:55 Sunny 89 31.8 73 22.5 58 58 Calm 29.97 1015 10 16.0934 0 0
12:15 pm 12:15 Partly Cloudy 90 32.1 71 21.6 54 54 W 5 7 29.97 1015 10 16.0934 0 0
12:35 pm 12:35 Partly Cloudy 90 32.1 71 21.4 53 53 Calm 29.97 1015 10 16.0934 0 0
12:55 pm 12:55 Partly Cloudy 90 32.1 70 21 52 52 WNW 5 7 29.97 1015 10 16.0934 0 0
1:15 pm 13:15 Partly Cloudy 90 32.1 67 19.6 48 48 W 5 7 29.97 1015 10 16.0934 0 0
1:35 pm 13:35 Partly Cloudy 90 32.1 68 19.8 48 48 NW 3 6 29.97 1015 10 16.0934 0 0
1:55 pm 13:55 Sunny 90 32.1 65 18.3 44 44 W 6 9 29.94 1014 10 16.0934 0 0
2:15 pm 14:15 Partly Cloudy 90 32.1 65 18.6 45 45 NW 3 6 29.94 1014 10 16.0934 0 0
2:35 pm 14:35 Sunny 90 32.1 66 18.8 45 45 W 6 9 29.94 1014 10 16.0934 0 0
2:55 pm 14:55 Partly Cloudy 90 32.1 64 17.9 43 43 WSW 10 17 29.94 1014 10 16.0934 0 0
3:15 pm 15:15 Partly Cloudy 90 32.1 66 18.9 46 46 NW 6 9 29.91 1013 10 16.0934 0 0
3:35 pm 15:35 Sunny 90 32.4 64 17.5 41 41 W 6 9 29.91 1013 10 16.0934 0 0
3:55 pm 15:55 Sunny 91 32.9 65 18.3 42 42 W 6 9 29.91 1013 10 16.0934 0 0
4:15 pm 16:15 Sunny 92 33.5 65 18.6 41 41 W 6 9 29.91 1013 10 16.0934 0 0
4:35 pm 16:35 Sunny 92 33.2 65 18.5 42 42 W 6 9 29.91 1013 10 16.0934 0 0
4:55 pm 16:55 Sunny 92 33.1 65 18.3 41 41 W 8 13 29.88 1012 10 16.0934 0 0
5:15 pm 17:15 Sunny 90 32.2 63 17.1 40 40 W 8 13 29.88 1012 10 16.0934 0 0
5:35 pm 17:35 Sunny 90 32.1 62 16.7 40 40 W 8 13 29.88 1012 10 16.0934 0 0
5:55 pm 17:55 Sunny 90 32.1 63 17.2 41 41 W 7 11 29.88 1012 10 16.0934 0 0
6:15 pm 18:15 Sunny 90 32.1 64 17.9 43 43 W 3 6 29.88 1012 10 16.0934 0 0
6:35 pm 18:35 Sunny 90 32.1 65 18.6 45 45 W 6 9 29.88 1012 10 16.0934 0 0
6:55 pm 18:55 Sunny 90 32.1 66 18.8 45 45 W 5 7 29.88 1012 10 16.0934 0 0
7:15 pm 19:15 Sunny 90 32.1 69 20.4 50 50 W 3 6 29.88 1012 10 16.0934 0 0
7:35 pm 19:35 Sunny 84 28.7 70 21.2 64 64 Calm 29.88 1012 10 16.0934 0 0
7:55 pm 19:55 Sunny 80 26.8 70 21.2 71 71 Calm 29.91 1013 10 16.0934 0 0
8:15 pm 20:15 Clear 77 25.1 70 21 78 78 Calm 29.91 1013 10 16.0934 0 0
8:35 pm 20:35 Clear 77 25.1 71 21.6 81 81 Calm 29.91 1013 10 16.0934 0 0
8:55 pm 20:55 Clear 77 25.1 72 22.3 85 85 Calm 29.91 1013 10 16.0934 0 0
9:15 pm 21:15 Clear 76 24.5 71 21.7 84 84 Calm 29.94 1014 10 16.0934 0 0
9:35 pm 21:35 Clear 74 23.6 70 21 85 85 Calm 29.94 1014 10 16.0934 0 0
9:55 pm 21:55 Clear 74 23.6 70 21.2 86 86 Calm 29.94 1014 10 16.0934 0 0
10:10 pm 22:10 Clear 74 23.6 70 21.3 87 87 Calm 29.94 1014 7 11.26538 0 0
10:35 pm 22:35 Clear 74 23.6 70 21.3 87 87 Calm 29.94 1014 7 11.26538 0 0
10:55 pm 22:55 Clear 74 23.6 70 21.2 86 86 Calm 29.94 1014 10 16.0934 0 0
11:15 pm 23:15 Clear 74 23.6 71 21.5 88 88 Calm 29.94 1014 10 16.0934 0 0
11:35 pm 23:35 Clear 74 23.6 70 21.3 87 87 Calm 29.97 1015 7 11.26538 0 0
11:55 pm 23:55 Clear 74 23.2 70 21.2 89 89 Calm 29.94 1014 7 11.26538 0 0

Powered by AerisWeather